CZ-3C DEB, 40863

Orbit data source: Space-Track

CZ-3C DEB, 40863 is space debris in HEO originally from a launch on Fri, 24 Feb 2012 UTC launched from the Xichang Space Center, China (XSC). Debris objects in space refer to the collection of defunct objects orbiting the Earth. Examples of debris include non-operational satellites, rocket bodies, and fragments generated from explosions, collisions, or faulty payload assembly.

Loading next visibility...
CZ-3C DEB details
Identifier
40863, 2012-008AD
Orbit
HEO
Last TLE update6 days ago
Origin
Flag of CNCASC (CN / PRC)
ManufacturerCALT
MissionSpacecraft
Bus & MotorUnknown
MassUnknown
Launch date (UTC)
2012-02-24 (13 years ago)
Launch vehicleUnknown
Launch site
Xichang Space Center, China (XSC)
Object type
Payload
Rocket body
Debris
Shape & HBRUnknown
Radar Cross SectionMedium (>0.1 m² and <1 m²)

Expand to show TLE details & history

TLE from 6 days ago
0 CZ-3C DEB
1 40863U 12008AD  24355.47105976 -.00000157  00000-0  00000-0 0  9994
2 40863  21.4834   0.4365 7051252 300.4717   8.4064  2.20909226 80223
Epoch: 2024-12-20T11:18Z
Definitive object data (Epoch: 2024-12-20T11:18:19.563Z)
Latitude0.00001°
Longitude101.32003°
Altitude2,839.524 km
Speed8.395 km/s
True Right ascension00h 01m 45s
True Declination0° 00' 00"
Sunlit
Object was in daylight at TLE epoch
Visualization TLE readout
Latitude20.31071°
Longitude-150.54131°
Altitude32,870.029 km
Speed2.075 km/s
Apparent Right ascension06h 45m 56s
Apparent Declination15° 22' 15"
Sunlit
Object is in daylight
Visualization observer readout
Local Sidereal Time11:18:13
Azimuth268.223° W
Elevation26.504°
Doppler factor1
Orbital elements
Apogee altitude36,092.122 km
Perigee altitude966.432 km
Semi-major axis24,907.414 km
Eccentricity0.7051252
Inclination21.4834°
RAAN0.4365°
Arg. of periapsis300.4717°
True anomaly58.69025°
Mean anomaly8.4064°
Eccentric anomaly26.31844°
Mean motion0.55214 °/min
BSTARUnknown
Orbital period652.01 mins
Loading maneuver chart data...
Loading historical data...
Loading historical data...
Loading historical data...
Loading historical data...
Loading historical data...
Loading historical data...
Loading historical data...

CZ-3C DEB Visibility forecast

Observer location: undefined°, undefined

Span
Click to sort rows by Start time (UTC) header in descending order
Start Az.
Max El. time (UTC)
Max El. Az.
Max El.
End time (UTC)
End Az.
164 mins2024-12-26 11:56:47.620Z268.204° W2024-12-26 11:56:47.620Z268.204° W24.045°2024-12-26 14:40:47.620Z275.158° WNW
320 mins2024-12-27 06:36:47.620Z255.29° W2024-12-27 08:34:47.620Z234.433° WSW39.837°2024-12-27 11:56:47.620Z249.62° W
|